Location: George Washington National Forest Helicopter Landing Site
(38.6463°N, 79.0851°W)
Time: 15:37:08
(UTC-04:00)

Transit 2A Rocket - Visible Passes

Search period start: 18 August 2019 00:00
Search period end: 28 August 2019 00:00
Orbit: 590 x 913 km, 66.7° (Epoch: 16 August)

Date Brightness Start Highest point End Pass type
(mag) Time Alt. Az. Time Alt. Az. Time Alt. Az.
18 Aug 7.5 05:29:30 10° N 05:32:59 21° NE 05:36:18 10° E visible
18 Aug 6.2 21:43:11 10° SW 21:48:49 47° WNW 21:54:03 10° NNE visible
19 Aug 8.0 04:48:05 10° NNE 04:50:05 13° NE 04:52:00 10° ENE visible
19 Aug 5.3 21:00:20 10° SSW 21:06:14 79° WNW 21:11:42 10° NNE visible
19 Aug 8.2 22:46:48 10° WNW 22:49:34 14° NW 22:52:15 10° NNW visible
20 Aug 5.5 05:46:18 10° NNW 05:50:46 54° ENE 05:55:00 10° SE visible
20 Aug 7.7 22:02:22 10° W 22:06:40 21° NW 22:10:45 10° N visible
21 Aug 6.7 05:04:07 10° N 05:08:07 29° NE 05:11:55 10° ESE visible
21 Aug 7.0 21:18:42 10° WSW 21:23:54 34° NW 21:28:47 10° N visible
22 Aug 7.5 04:22:15 10° N 04:25:19 17° NE 04:28:14 10° E visible
22 Aug 4.7 06:03:52 10° NW 06:08:11 48° WSW 06:12:17 10° S visible
22 Aug 6.0 20:35:32 10° SW 20:41:15 56° WNW 20:46:34 10° NNE visible
23 Aug 8.1 03:41:38 10° NNE 03:42:21 10° NE 03:43:05 10° NE visible
23 Aug 4.6 05:21:14 10° NNW 05:25:45 84° ENE 05:30:02 10° SSE visible
23 Aug 8.0 21:38:33 10° W 21:41:54 16° NW 21:45:06 10° N visible
24 Aug 5.7 04:38:51 10° NNW 04:43:11 43° ENE 04:47:16 10° SE visible
24 Aug 7.6 20:54:25 10° WSW 20:59:03 25° NW 21:03:25 10° N visible
25 Aug 6.8 03:56:45 10° N 04:00:28 24° NE 04:04:01 10° ESE visible
25 Aug 5.2 05:39:07 10° NW 05:43:01 31° WSW 05:46:46 10° S visible
26 Aug 7.5 03:15:07 10° N 03:17:37 14° NE 03:20:03 10° E visible
26 Aug 4.4 04:56:15 10° NW 05:00:40 62° WSW 05:04:52 10° SSE visible
26 Aug 8.2 21:15:23 10° WNW 21:17:10 11° NW 21:18:56 10° NNW visible
27 Aug 4.8 04:13:43 10° NNW 04:18:11 66° ENE 04:18:46 58° ESE visible
27 Aug 7.8 20:30:26 10° W 20:34:14 18° NW 20:37:52 10° N visible
